Regional Weather Roundup
Issued by NWS Cleveland, OH

Home | Current Version | Previous Version | Graphics & Text | Print | Product List | Glossary On
Versions: 1 2 3 4 5 6 7 8 9 10 11 12 13 14 15 16 17 18 19 20 21 22 23 24 25 26 27 28 29 30 31 32 33 34 35 36 37 38 39 40 41 42 43 44 45 46 47 48 49 50
000
ASUS41 KCLE 022102
RWRCLE
OHIO REGIONAL WEATHER ROUNDUP
NATIONAL WEATHER SERVICE CLEVELAND, OH
500 PM EDT SUN AUG 02 2015

NOTE: "FAIR" INDICATES FEW OR NO CLOUDS BELOW 12,000 FEET WITH NO
SIGNIFICANT WEATHER AND/OR OBSTRUCTIONS TO VISIBILITY.

OHZ001>008-015>018-024>027-034-035-043-044-022200-
   NORTHWEST OHIO

CITY           SKY/WX    TMP DP  RH WIND       PRES   REMARKS
DEFIANCE       SUNNY     91  61  36 SW16G28   29.79F HX  91
FINDLAY        SUNNY     88  63  43 SW24G31   29.82F
TOLEDO EXPRESS SUNNY     89  61  38 SW16G30   29.78F
TOLEDO EXEC    SUNNY     91  59  33 SW23G32   29.79F HX  90
LIMA           SUNNY     86  65  49 SW16G29   29.86F
$$

OHZ009>014-019>023-028>033-038-089-022200-
   NORTHEAST OHIO

CITY           SKY/WX    TMP DP  RH WIND       PRES   REMARKS
CLE-HOPKINS    MOSUNNY   89  62  40 SW15G24   29.85F
CLE-LAKEFRONT  SUNNY     90  61  37 SW21G31   29.81S HX  90
CUY CO. ARPT   MOSUNNY   91  64  40 W17       29.84F HX  93
LORAIN-ELYRIA  SUNNY     87  63  44 SW15G24   29.84F
ASHTABULA      SUNNY     88  59  37 SW12G21   29.84F
AKRON-CANTON   MOSUNNY   86  64  47 SW14      29.88F
WOOSTER        SUNNY     84  64  50 SW9G21    29.88F
MANSFIELD      SUNNY     85  61  44 S20G25    29.88F
YOUNGSTOWN     MOSUNNY   84  64  50 SW14      29.88S
$$

OHZ042-051>053-060>062-070>072-077>081-022200-
  SOUTHWEST OHIO

CITY           SKY/WX    TMP DP  RH WIND       PRES   REMARKS
CINC-COVINGTON MOSUNNY   86  62  44 SW8       29.94F
CINC-LUNKEN    SUNNY     86  62  44 S8        29.92F
HAMILTON       SUNNY     89  62  40 MISG      29.92F
DAYTON         MOSUNNY   85  61  44 SW16G22   29.92F
WRIGHT-PAT AFB NOT AVBL
DAYTON GENERAL SUNNY     85  60  42 SW12G18   29.92F
WILMINGTON     SUNNY     84  61  45 SW15      29.93F
$$

OHZ036-037-039>041-045>050-054>059-063>069-073>076-082>088-022200-
  CENTRAL AND SOUTHEAST OHIO

CITY           SKY/WX    TMP DP  RH WIND       PRES   REMARKS
COLUMBUS       MOSUNNY   87  60  40 SW16      29.90F
OSU AIRPORT    MOSUNNY   86  61  42 SW13G22   29.90F
BOLTON FIELD   SUNNY     84  63  48 SW12      29.92F
RICKENBACK AFB SUNNY     85  63  47 SW14      29.91F
NEWARK         SUNNY     86  61  42 MISG      29.91F
MARION         SUNNY     86  60  41 SW18G26   29.88F
LANCASTER      MOSUNNY   85  63  47 SW10      29.93F
ZANESVILLE     SUNNY     85  60  42 SW10      29.92F
NEW PHILLY     MOSUNNY   83  65  54 SW8       29.90F
$$



USA.gov is the U.S. government's official web portal to all federal, state and local government web resources and services.